Location: ???????
(55.3754°N, 39.3545°E)
Time: 22:40:13
(UTC+00:00)

Meteor 2-3 Rocket - Pass Details

Date: 14 April 2026
Orbit: 845 x 880 km, 81.2° (Epoch: 13 May)

Event Time Altitude Azimuth Distance (km) Brightness Sun altitude
Rises 21:30:01 0° 342° (NNW) 3,436 8.0 -24.9°
Reaches altitude 10° 21:32:33 10° 336° (NNW) 2,492 7.0 -24.9°
Maximum altitude 21:37:48 42° 268° (W) 1,204 4.4 -24.9°
Enters shadow 21:38:27 40° 250° (WSW) 1,233 4.3 -24.9°
